iso_date,epoch_date,Year,Hour,Min,DOY,POS_DOY,Lat,Lon,BP,Ts,Ta,has_bp,has_ts,has_ta,BuoyID,Buoy_Type,Buoy_Owner,Logistics,Hemisphere
2017-04-10T15:18:43Z,1491837523,2017,15,18,100.638,100.638,89.1946,31.56959,1019.66,-999.00,-29.96,yes,no,yes,300234062836680,IMB,CRREL,unknown,North
2017-04-10T16:00:28Z,1491840029,2017,16,0,100.667,100.667,89.1948,31.53031,1019.91,-999.00,-30.69,yes,no,yes,300234062836680,IMB,CRREL,unknown,North
2017-04-10T16:59:31Z,1491843571,2017,17,0,100.708,100.667,89.1948,31.53031,1020.5,-999.00,-30.54,yes,no,yes,300234062836680,IMB,CRREL,unknown,North
2017-04-10T18:00:00Z,1491847200,2017,18,0,100.75,100.667,89.1948,31.53031,1020.9,-999.00,-30.48,yes,no,yes,300234062836680,IMB,CRREL,unknown,North
2017-04-10T19:00:28Z,1491850829,2017,19,0,100.792,100.667,89.1948,31.53031,1021.59,-999.00,-30.51,yes,no,yes,300234062836680,IMB,CRREL,unknown,North
2017-04-10T19:59:31Z,1491854371,2017,20,0,100.833,100.833,89.197,31.43616,1022.19,-999.00,-30.51,yes,no,yes,300234062836680,IMB,CRREL,unknown,North
2017-04-10T21:00:00Z,1491858000,2017,21,0,100.875,100.833,89.197,31.43616,1022.6,-999.00,-30.45,yes,no,yes,300234062836680,IMB,CRREL,unknown,North
2017-04-10T22:00:28Z,1491861629,2017,22,0,100.917,100.833,89.197,31.43616,1023.15,-999.00,-30.47,yes,no,yes,300234062836680,IMB,CRREL,unknown,North
2017-04-10T22:59:31Z,1491865171,2017,23,0,100.958,100.833,89.197,31.43616,1023.42,-999.00,-30.82,yes,no,yes,300234062836680,IMB,CRREL,unknown,North
2017-04-11T00:00:00Z,1491868800,2017,0,0,101.0,101.0,89.1986,31.37902,1023.55,-999.00,-31.01,yes,no,yes,300234062836680,IMB,CRREL,unknown,North
2017-04-11T01:00:28Z,1491872429,2017,1,0,101.042,101.0,89.1986,31.37902,1023.89,-999.00,-30.95,yes,no,yes,300234062836680,IMB,CRREL,unknown,North
2017-04-11T01:59:31Z,1491875971,2017,2,0,101.083,101.0,89.1986,31.37902,1024.37,-999.00,-31.14,yes,no,yes,300234062836680,IMB,CRREL,unknown,North
2017-04-11T03:00:00Z,1491879600,2017,3,0,101.125,101.0,89.1986,31.37902,1024.44,-999.00,-31.14,yes,no,yes,300234062836680,IMB,CRREL,unknown,North
2017-04-11T04:00:28Z,1491883229,2017,4,0,101.167,101.167,89.20067,31.22865,1024.57,-999.00,-30.8,yes,no,yes,300234062836680,IMB,CRREL,unknown,North
2017-04-11T04:59:31Z,1491886771,2017,5,0,101.208,101.167,89.20067,31.22865,1024.71,-999.00,-30.97,yes,no,yes,300234062836680,IMB,CRREL,unknown,North
2017-04-11T06:00:00Z,1491890400,2017,6,0,101.25,101.167,89.20067,31.22865,1024.78,-999.00,-30.72,yes,no,yes,300234062836680,IMB,CRREL,unknown,North
2017-04-11T07:00:28Z,1491894029,2017,7,0,101.292,101.167,89.20067,31.22865,1024.92,-999.00,-29.85,yes,no,yes,300234062836680,IMB,CRREL,unknown,North
2017-04-11T07:59:31Z,1491897571,2017,8,0,101.333,101.333,89.20286,31.03406,1024.78,-999.00,-28.62,yes,no,yes,300234062836680,IMB,CRREL,unknown,North
2017-04-11T09:00:00Z,1491901200,2017,9,0,101.375,101.333,89.20286,31.03406,1024.64,-999.00,-27.21,yes,no,yes,300234062836680,IMB,CRREL,unknown,North
2017-04-11T10:00:28Z,1491904829,2017,10,0,101.417,101.333,89.20286,31.03406,1024.57,-999.00,-26.3,yes,no,yes,300234062836680,IMB,CRREL,unknown,North
2017-04-11T10:59:31Z,1491908371,2017,11,0,101.458,101.333,89.20286,31.03406,1024.64,-999.00,-25.9,yes,no,yes,300234062836680,IMB,CRREL,unknown,North
2017-04-11T12:00:00Z,1491912000,2017,12,0,101.5,101.5,89.20278,30.84483,1024.51,-999.00,-25.57,yes,no,yes,300234062836680,IMB,CRREL,unknown,North
2017-04-11T13:00:28Z,1491915629,2017,13,0,101.542,101.5,89.20278,30.84483,1024.37,-999.00,-23.82,yes,no,yes,300234062836680,IMB,CRREL,unknown,North
2017-04-11T13:59:31Z,1491919171,2017,14,0,101.583,101.5,89.20278,30.84483,1024.1,-999.00,-22.58,yes,no,yes,300234062836680,IMB,CRREL,unknown,North
2017-04-11T15:00:00Z,1491922800,2017,15,0,101.625,101.5,89.20278,30.84483,1023.96,-999.00,-23.18,yes,no,yes,300234062836680,IMB,CRREL,unknown,North
2017-04-11T16:00:28Z,1491926429,2017,16,0,101.667,101.667,89.20188,30.69791,1023.83,-999.00,-22.39,yes,no,yes,300234062836680,IMB,CRREL,unknown,North
2017-04-11T16:59:31Z,1491929971,2017,17,0,101.708,101.667,89.20188,30.69791,1023.49,-999.00,-21.39,yes,no,yes,300234062836680,IMB,CRREL,unknown,North
2017-04-11T18:00:00Z,1491933600,2017,18,0,101.75,101.667,89.20188,30.69791,1023.28,-999.00,-21.27,yes,no,yes,300234062836680,IMB,CRREL,unknown,North
2017-04-11T19:00:28Z,1491937229,2017,19,0,101.792,101.667,89.20188,30.69791,1022.87,-999.00,-21.36,yes,no,yes,300234062836680,IMB,CRREL,unknown,North
2017-04-11T19:59:31Z,1491940771,2017,20,0,101.833,101.833,89.20042,30.57965,1022.6,-999.00,-20.68,yes,no,yes,300234062836680,IMB,CRREL,unknown,North
2017-04-11T21:00:00Z,1491944400,2017,21,0,101.875,101.833,89.20042,30.57965,1022.46,-999.00,-19.7,yes,no,yes,300234062836680,IMB,CRREL,unknown,North
2017-04-11T22:00:28Z,1491948029,2017,22,0,101.917,101.833,89.20042,30.57965,1022.46,-999.00,-17.79,yes,no,yes,300234062836680,IMB,CRREL,unknown,North
2017-04-11T22:59:31Z,1491951571,2017,23,0,101.958,101.833,89.20042,30.57965,1022.33,-999.00,-16.85,yes,no,yes,300234062836680,IMB,CRREL,unknown,North
2017-04-12T00:00:00Z,1491955200,2017,0,0,102.0,102.0,89.19868,30.40777,1022.26,-999.00,-16.47,yes,no,yes,300234062836680,IMB,CRREL,unknown,North
2017-04-12T01:00:28Z,1491958829,2017,1,0,102.042,102.0,89.19868,30.40777,1022.46,-999.00,-16.24,yes,no,yes,300234062836680,IMB,CRREL,unknown,North
2017-04-12T01:59:31Z,1491962371,2017,2,0,102.083,102.0,89.19868,30.40777,1022.33,-999.00,-16.61,yes,no,yes,300234062836680,IMB,CRREL,unknown,North
2017-04-12T03:00:00Z,1491966000,2017,3,0,102.125,102.0,89.19868,30.40777,1022.06,-999.00,-16.43,yes,no,yes,300234062836680,IMB,CRREL,unknown,North
2017-04-12T04:00:28Z,1491969629,2017,4,0,102.167,102.167,89.19702,30.23675,1021.78,-999.00,-16.2,yes,no,yes,300234062836680,IMB,CRREL,unknown,North
2017-04-12T04:59:31Z,1491973171,2017,5,0,102.208,102.167,89.19702,30.23675,1021.65,-999.00,-16.7,yes,no,yes,300234062836680,IMB,CRREL,unknown,North
2017-04-12T06:00:00Z,1491976800,2017,6,0,102.25,102.167,89.19702,30.23675,1021.24,-999.00,-16.57,yes,no,yes,300234062836680,IMB,CRREL,unknown,North
2017-04-12T07:00:28Z,1491980429,2017,7,0,102.292,102.167,89.19702,30.23675,1020.97,-999.00,-17.26,yes,no,yes,300234062836680,IMB,CRREL,unknown,North
2017-04-12T07:59:31Z,1491983971,2017,8,0,102.333,102.333,89.19478,30.06765,1020.69,-999.00,-15.56,yes,no,yes,300234062836680,IMB,CRREL,unknown,North
2017-04-12T09:00:00Z,1491987600,2017,9,0,102.375,102.333,89.19478,30.06765,1020.15,-999.00,-14.43,yes,no,yes,300234062836680,IMB,CRREL,unknown,North
2017-04-12T10:00:28Z,1491991229,2017,10,0,102.417,102.333,89.19478,30.06765,1020.01,-999.00,-13.95,yes,no,yes,300234062836680,IMB,CRREL,unknown,North
2017-04-12T10:59:31Z,1491994771,2017,11,0,102.458,102.333,89.19478,30.06765,1019.61,-999.00,-14.11,yes,no,yes,300234062836680,IMB,CRREL,unknown,North
2017-04-12T12:00:00Z,1491998400,2017,12,0,102.5,102.5,89.19211,29.84495,1019.4,-999.00,-13.71,yes,no,yes,300234062836680,IMB,CRREL,unknown,North
2017-04-12T13:00:28Z,1492002029,2017,13,0,102.542,102.5,89.19211,29.84495,1019.06,-999.00,-13.43,yes,no,yes,300234062836680,IMB,CRREL,unknown,North
2017-04-12T13:59:31Z,1492005571,2017,14,0,102.583,102.5,89.19211,29.84495,1018.92,-999.00,-13.6,yes,no,yes,300234062836680,IMB,CRREL,unknown,North
2017-04-12T15:00:00Z,1492009200,2017,15,0,102.625,102.5,89.19211,29.84495,1018.65,-999.00,-13.65,yes,no,yes,300234062836680,IMB,CRREL,unknown,North
2017-04-12T16:00:28Z,1492012829,2017,16,0,102.667,102.667,89.18897,29.66014,1018.58,-999.00,-14.38,yes,no,yes,300234062836680,IMB,CRREL,unknown,North
2017-04-12T16:59:31Z,1492016371,2017,17,0,102.708,102.667,89.18897,29.66014,1018.45,-999.00,-14.01,yes,no,yes,300234062836680,IMB,CRREL,unknown,North
2017-04-12T18:00:00Z,1492020000,2017,18,0,102.75,102.667,89.18897,29.66014,1018.38,-999.00,-14.01,yes,no,yes,300234062836680,IMB,CRREL,unknown,North
2017-04-12T19:00:28Z,1492023629,2017,19,0,102.792,102.667,89.18897,29.66014,1018.31,-999.00,-14.2,yes,no,yes,300234062836680,IMB,CRREL,unknown,North
2017-04-12T19:59:31Z,1492027171,2017,20,0,102.833,102.833,89.18497,29.51479,1018.52,-999.00,-14.38,yes,no,yes,300234062836680,IMB,CRREL,unknown,North
2017-04-12T21:00:00Z,1492030800,2017,21,0,102.875,102.833,89.18497,29.51479,1018.52,-999.00,-14.37,yes,no,yes,300234062836680,IMB,CRREL,unknown,North
2017-04-12T22:00:28Z,1492034429,2017,22,0,102.917,102.833,89.18497,29.51479,1018.72,-999.00,-14.52,yes,no,yes,300234062836680,IMB,CRREL,unknown,North
2017-04-12T22:59:31Z,1492037971,2017,23,0,102.958,102.833,89.18497,29.51479,1018.79,-999.00,-14.81,yes,no,yes,300234062836680,IMB,CRREL,unknown,North
2017-04-13T00:00:00Z,1492041600,2017,0,0,103.0,103.0,89.17759,29.22764,1018.92,-999.00,-15.21,yes,no,yes,300234062836680,IMB,CRREL,unknown,North
2017-04-13T01:00:28Z,1492045229,2017,1,0,103.042,103.0,89.17759,29.22764,1019.13,-999.00,-16.01,yes,no,yes,300234062836680,IMB,CRREL,unknown,North
2017-04-13T01:59:31Z,1492048771,2017,2,0,103.083,103.0,89.17759,29.22764,1019.2,-999.00,-16.81,yes,no,yes,300234062836680,IMB,CRREL,unknown,North
2017-04-13T03:00:00Z,1492052400,2017,3,0,103.125,103.0,89.17759,29.22764,1019.47,-999.00,-17.02,yes,no,yes,300234062836680,IMB,CRREL,unknown,North
2017-04-13T04:00:28Z,1492056029,2017,4,0,103.167,103.167,89.16996,28.87087,1019.61,-999.00,-18.26,yes,no,yes,300234062836680,IMB,CRREL,unknown,North
2017-04-13T04:59:31Z,1492059571,2017,5,0,103.208,103.167,89.16996,28.87087,1019.81,-999.00,-17.12,yes,no,yes,300234062836680,IMB,CRREL,unknown,North
2017-04-13T06:00:00Z,1492063200,2017,6,0,103.25,103.167,89.16996,28.87087,1020.08,-999.00,-16.15,yes,no,yes,300234062836680,IMB,CRREL,unknown,North
2017-04-13T07:00:28Z,1492066829,2017,7,0,103.292,103.167,89.16996,28.87087,1020.42,-999.00,-16.45,yes,no,yes,300234062836680,IMB,CRREL,unknown,North
2017-04-13T07:59:31Z,1492070371,2017,8,0,103.333,103.333,89.16266,28.5192,1020.69,-999.00,-16.28,yes,no,yes,300234062836680,IMB,CRREL,unknown,North
2017-04-13T09:00:00Z,1492074000,2017,9,0,103.375,103.333,89.16266,28.5192,1021.1,-999.00,-16.9,yes,no,yes,300234062836680,IMB,CRREL,unknown,North
2017-04-13T10:00:28Z,1492077629,2017,10,0,103.417,103.333,89.16266,28.5192,1021.58,-999.00,-17.67,yes,no,yes,300234062836680,IMB,CRREL,unknown,North
2017-04-13T10:59:31Z,1492081171,2017,11,0,103.458,103.333,89.16266,28.5192,1022.33,-999.00,-22.12,yes,no,yes,300234062836680,IMB,CRREL,unknown,North
2017-04-13T12:00:00Z,1492084800,2017,12,0,103.5,103.5,89.15376,27.88317,1022.87,-999.00,-23.85,yes,no,yes,300234062836680,IMB,CRREL,unknown,North
2017-04-13T13:00:28Z,1492088429,2017,13,0,103.542,103.5,89.15376,27.88317,1023.08,-999.00,-24.13,yes,no,yes,300234062836680,IMB,CRREL,unknown,North
2017-04-13T13:59:31Z,1492091971,2017,14,0,103.583,103.5,89.15376,27.88317,1023.42,-999.00,-23.02,yes,no,yes,300234062836680,IMB,CRREL,unknown,North
2017-04-13T15:00:00Z,1492095600,2017,15,0,103.625,103.5,89.15376,27.88317,1023.96,-999.00,-22.47,yes,no,yes,300234062836680,IMB,CRREL,unknown,North
2017-04-13T16:00:28Z,1492099229,2017,16,0,103.667,103.667,89.14574,27.11028,1024.23,-999.00,-22.44,yes,no,yes,300234062836680,IMB,CRREL,unknown,North
2017-04-13T16:59:31Z,1492102771,2017,17,0,103.708,103.667,89.14574,27.11028,1024.78,-999.00,-22.32,yes,no,yes,300234062836680,IMB,CRREL,unknown,North
2017-04-13T18:00:00Z,1492106400,2017,18,0,103.75,103.667,89.14574,27.11028,1025.6,-999.00,-22.22,yes,no,yes,300234062836680,IMB,CRREL,unknown,North
2017-04-13T19:00:28Z,1492110029,2017,19,0,103.792,103.667,89.14574,27.11028,1026.14,-999.00,-21.61,yes,no,yes,300234062836680,IMB,CRREL,unknown,North
2017-04-13T19:59:31Z,1492113571,2017,20,0,103.833,103.833,89.13646,26.36038,1026.82,-999.00,-18.91,yes,no,yes,300234062836680,IMB,CRREL,unknown,North
2017-04-13T21:00:00Z,1492117200,2017,21,0,103.875,103.833,89.13646,26.36038,1027.3,-999.00,-18.77,yes,no,yes,300234062836680,IMB,CRREL,unknown,North
2017-04-13T22:00:28Z,1492120829,2017,22,0,103.917,103.833,89.13646,26.36038,1027.64,-999.00,-19.42,yes,no,yes,300234062836680,IMB,CRREL,unknown,North
2017-04-13T22:59:31Z,1492124371,2017,23,0,103.958,103.833,89.13646,26.36038,1027.5,-999.00,-20.08,yes,no,yes,300234062836680,IMB,CRREL,unknown,North
2017-04-14T00:00:00Z,1492128000,2017,0,0,104.0,104.0,89.12388,25.49783,1026.96,-999.00,-20.19,yes,no,yes,300234062836680,IMB,CRREL,unknown,North
2017-04-14T01:00:28Z,1492131629,2017,1,0,104.042,104.0,89.12388,25.49783,1027.23,-999.00,-19.72,yes,no,yes,300234062836680,IMB,CRREL,unknown,North
2017-04-14T01:59:31Z,1492135171,2017,2,0,104.083,104.0,89.12388,25.49783,1027.23,-999.00,-19.33,yes,no,yes,300234062836680,IMB,CRREL,unknown,North
2017-04-14T03:00:00Z,1492138800,2017,3,0,104.125,104.0,89.12388,25.49783,1027.5,-999.00,-18.62,yes,no,yes,300234062836680,IMB,CRREL,unknown,North
2017-04-14T04:00:28Z,1492142429,2017,4,0,104.167,104.167,89.11265,24.66114,1027.77,-999.00,-17.82,yes,no,yes,300234062836680,IMB,CRREL,unknown,North
2017-04-14T04:59:31Z,1492145971,2017,5,0,104.208,104.167,89.11265,24.66114,1028.32,-999.00,-17.14,yes,no,yes,300234062836680,IMB,CRREL,unknown,North
2017-04-14T06:00:00Z,1492149600,2017,6,0,104.25,104.167,89.11265,24.66114,1028.73,-999.00,-16.58,yes,no,yes,300234062836680,IMB,CRREL,unknown,North
2017-04-14T07:00:28Z,1492153229,2017,7,0,104.292,104.167,89.11265,24.66114,1029.14,-999.00,-16.12,yes,no,yes,300234062836680,IMB,CRREL,unknown,North
2017-04-14T07:59:31Z,1492156771,2017,8,0,104.333,104.333,89.10325,24.02978,1029.41,-999.00,-15.73,yes,no,yes,300234062836680,IMB,CRREL,unknown,North
2017-04-14T09:00:00Z,1492160400,2017,9,0,104.375,104.333,89.10325,24.02978,1030.09,-999.00,-15.53,yes,no,yes,300234062836680,IMB,CRREL,unknown,North
2017-04-14T10:00:28Z,1492164029,2017,10,0,104.417,104.333,89.10325,24.02978,1030.57,-999.00,-15.27,yes,no,yes,300234062836680,IMB,CRREL,unknown,North
2017-04-14T10:59:31Z,1492167571,2017,11,0,104.458,104.333,89.10325,24.02978,1031.04,-999.00,-15.17,yes,no,yes,300234062836680,IMB,CRREL,unknown,North
2017-04-14T12:00:00Z,1492171200,2017,12,0,104.5,104.5,89.09293,23.33136,1031.45,-999.00,-15.0,yes,no,yes,300234062836680,IMB,CRREL,unknown,North
2017-04-14T13:00:28Z,1492174829,2017,13,0,104.542,104.5,89.09293,23.33136,1031.79,-999.00,-14.94,yes,no,yes,300234062836680,IMB,CRREL,unknown,North
2017-04-14T13:59:31Z,1492178371,2017,14,0,104.583,104.5,89.09293,23.33136,1031.86,-999.00,-14.95,yes,no,yes,300234062836680,IMB,CRREL,unknown,North
2017-04-14T15:00:00Z,1492182000,2017,15,0,104.625,104.5,89.09293,23.33136,1032.13,-999.00,-15.2,yes,no,yes,300234062836680,IMB,CRREL,unknown,North
2017-04-14T16:00:28Z,1492185629,2017,16,0,104.667,104.667,89.08365,22.82032,1032.27,-999.00,-15.41,yes,no,yes,300234062836680,IMB,CRREL,unknown,North
2017-04-14T16:59:31Z,1492189171,2017,17,0,104.708,104.667,89.08365,22.82032,1032.54,-999.00,-15.58,yes,no,yes,300234062836680,IMB,CRREL,unknown,North
2017-04-14T18:00:00Z,1492192800,2017,18,0,104.75,104.667,89.08365,22.82032,1032.4,-999.00,-15.8,yes,no,yes,300234062836680,IMB,CRREL,unknown,North
2017-04-14T19:00:28Z,1492196429,2017,19,0,104.792,104.667,89.08365,22.82032,1032.54,-999.00,-16.01,yes,no,yes,300234062836680,IMB,CRREL,unknown,North
2017-04-14T19:59:31Z,1492199971,2017,20,0,104.833,104.833,89.07386,22.47641,1032.81,-999.00,-16.01,yes,no,yes,300234062836680,IMB,CRREL,unknown,North
2017-04-14T21:00:00Z,1492203600,2017,21,0,104.875,104.833,89.07386,22.47641,1032.81,-999.00,-15.91,yes,no,yes,300234062836680,IMB,CRREL,unknown,North
2017-04-14T22:00:28Z,1492207229,2017,22,0,104.917,104.833,89.07386,22.47641,1032.95,-999.00,-16.03,yes,no,yes,300234062836680,IMB,CRREL,unknown,North
2017-04-14T22:59:31Z,1492210771,2017,23,0,104.958,104.833,89.07386,22.47641,1033.22,-999.00,-17.06,yes,no,yes,300234062836680,IMB,CRREL,unknown,North
2017-04-15T00:00:00Z,1492214400,2017,0,0,105.0,105.0,89.0615,21.99966,1033.22,-999.00,-20.21,yes,no,yes,300234062836680,IMB,CRREL,unknown,North
2017-04-15T01:00:28Z,1492218029,2017,1,0,105.042,105.0,89.0615,21.99966,1033.08,-999.00,-21.19,yes,no,yes,300234062836680,IMB,CRREL,unknown,North
2017-04-15T01:59:31Z,1492221571,2017,2,0,105.083,105.0,89.0615,21.99966,1032.88,-999.00,-21.69,yes,no,yes,300234062836680,IMB,CRREL,unknown,North
2017-04-15T03:00:00Z,1492225200,2017,3,0,105.125,105.0,89.0615,21.99966,1032.54,-999.00,-21.19,yes,no,yes,300234062836680,IMB,CRREL,unknown,North
2017-04-15T04:00:28Z,1492228829,2017,4,0,105.167,105.167,89.04822,21.59595,1032.13,-999.00,-19.96,yes,no,yes,300234062836680,IMB,CRREL,unknown,North
2017-04-15T04:59:31Z,1492232371,2017,5,0,105.208,105.167,89.04822,21.59595,1031.59,-999.00,-19.42,yes,no,yes,300234062836680,IMB,CRREL,unknown,North
2017-04-15T06:00:00Z,1492236000,2017,6,0,105.25,105.167,89.04822,21.59595,1031.04,-999.00,-18.85,yes,no,yes,300234062836680,IMB,CRREL,unknown,North
2017-04-15T07:00:28Z,1492239629,2017,7,0,105.292,105.167,89.04822,21.59595,1030.09,-999.00,-18.55,yes,no,yes,300234062836680,IMB,CRREL,unknown,North
2017-04-15T07:59:31Z,1492243171,2017,8,0,105.333,105.333,89.03188,21.22947,1029.88,-999.00,-17.55,yes,no,yes,300234062836680,IMB,CRREL,unknown,North
2017-04-15T09:00:00Z,1492246800,2017,9,0,105.375,105.333,89.03188,21.22947,1029.41,-999.00,-16.45,yes,no,yes,300234062836680,IMB,CRREL,unknown,North
2017-04-15T10:00:28Z,1492250429,2017,10,0,105.417,105.333,89.03188,21.22947,1028.73,-999.00,-15.24,yes,no,yes,300234062836680,IMB,CRREL,unknown,North
2017-04-15T10:59:31Z,1492253971,2017,11,0,105.458,105.333,89.03188,21.22947,1028.05,-999.00,-14.31,yes,no,yes,300234062836680,IMB,CRREL,unknown,North
2017-04-15T12:00:00Z,1492257600,2017,12,0,105.5,105.5,89.01313,20.6968,1027.64,-999.00,-13.91,yes,no,yes,300234062836680,IMB,CRREL,unknown,North
2017-04-15T13:00:28Z,1492261229,2017,13,0,105.542,105.5,89.01313,20.6968,1027.09,-999.00,-14.74,yes,no,yes,300234062836680,IMB,CRREL,unknown,North
2017-04-15T13:59:31Z,1492264771,2017,14,0,105.583,105.5,89.01313,20.6968,1026.68,-999.00,-15.28,yes,no,yes,300234062836680,IMB,CRREL,unknown,North
2017-04-15T15:00:00Z,1492268400,2017,15,0,105.625,105.5,89.01313,20.6968,1025.87,-999.00,-15.76,yes,no,yes,300234062836680,IMB,CRREL,unknown,North
2017-04-15T16:00:28Z,1492272029,2017,16,0,105.667,105.667,88.99603,20.18277,1025.6,-999.00,-16.4,yes,no,yes,300234062836680,IMB,CRREL,unknown,North
2017-04-15T16:59:31Z,1492275571,2017,17,0,105.708,105.667,88.99603,20.18277,1025.05,-999.00,-17.22,yes,no,yes,300234062836680,IMB,CRREL,unknown,North
2017-04-15T18:00:00Z,1492279200,2017,18,0,105.75,105.667,88.99603,20.18277,1024.64,-999.00,-17.94,yes,no,yes,300234062836680,IMB,CRREL,unknown,North
2017-04-15T19:00:28Z,1492282829,2017,19,0,105.792,105.667,88.99603,20.18277,1024.51,-999.00,-18.64,yes,no,yes,300234062836680,IMB,CRREL,unknown,North
2017-04-15T19:59:31Z,1492286371,2017,20,0,105.833,105.833,88.98097,19.73883,1024.37,-999.00,-17.76,yes,no,yes,300234062836680,IMB,CRREL,unknown,North
2017-04-15T21:00:00Z,1492290000,2017,21,0,105.875,105.833,88.98097,19.73883,1024.51,-999.00,-17.65,yes,no,yes,300234062836680,IMB,CRREL,unknown,North
2017-04-15T22:00:28Z,1492293629,2017,22,0,105.917,105.833,88.98097,19.73883,1024.51,-999.00,-17.55,yes,no,yes,300234062836680,IMB,CRREL,unknown,North
2017-04-15T22:59:31Z,1492297171,2017,23,0,105.958,105.833,88.98097,19.73883,1024.51,-999.00,-17.66,yes,no,yes,300234062836680,IMB,CRREL,unknown,North
2017-04-16T00:00:00Z,1492300800,2017,0,0,106.0,106.0,88.96739,19.18613,1024.57,-999.00,-17.22,yes,no,yes,300234062836680,IMB,CRREL,unknown,North
2017-04-16T01:00:28Z,1492304429,2017,1,0,106.042,106.0,88.96739,19.18613,1024.51,-999.00,-17.05,yes,no,yes,300234062836680,IMB,CRREL,unknown,North
2017-04-16T01:59:31Z,1492307971,2017,2,0,106.083,106.0,88.96739,19.18613,1024.71,-999.00,-16.66,yes,no,yes,300234062836680,IMB,CRREL,unknown,North
2017-04-16T03:00:00Z,1492311600,2017,3,0,106.125,106.0,88.96739,19.18613,1024.51,-999.00,-15.85,yes,no,yes,300234062836680,IMB,CRREL,unknown,North
2017-04-16T04:00:28Z,1492315229,2017,4,0,106.167,106.167,88.95536,18.63345,1024.44,-999.00,-15.41,yes,no,yes,300234062836680,IMB,CRREL,unknown,North
2017-04-16T04:59:31Z,1492318771,2017,5,0,106.208,106.167,88.95536,18.63345,1024.37,-999.00,-15.55,yes,no,yes,300234062836680,IMB,CRREL,unknown,North
2017-04-16T06:00:00Z,1492322400,2017,6,0,106.25,106.167,88.95536,18.63345,1024.51,-999.00,-15.86,yes,no,yes,300234062836680,IMB,CRREL,unknown,North
2017-04-16T07:00:28Z,1492326029,2017,7,0,106.292,106.167,88.95536,18.63345,1024.51,-999.00,-15.14,yes,no,yes,300234062836680,IMB,CRREL,unknown,North
2017-04-16T07:59:31Z,1492329571,2017,8,0,106.333,106.333,88.9448,18.21228,1024.51,-999.00,-14.28,yes,no,yes,300234062836680,IMB,CRREL,unknown,North
2017-04-16T09:00:00Z,1492333200,2017,9,0,106.375,106.333,88.9448,18.21228,1024.78,-999.00,-14.23,yes,no,yes,300234062836680,IMB,CRREL,unknown,North
2017-04-16T10:00:28Z,1492336829,2017,10,0,106.417,106.333,88.9448,18.21228,1024.78,-999.00,-15.73,yes,no,yes,300234062836680,IMB,CRREL,unknown,North
2017-04-16T10:59:31Z,1492340371,2017,11,0,106.458,106.333,88.9448,18.21228,1024.78,-999.00,-18.22,yes,no,yes,300234062836680,IMB,CRREL,unknown,North
2017-04-16T12:00:00Z,1492344000,2017,12,0,106.5,106.5,88.93456,17.8362,1024.92,-999.00,-17.22,yes,no,yes,300234062836680,IMB,CRREL,unknown,North
2017-04-16T13:00:28Z,1492347629,2017,13,0,106.542,106.5,88.93456,17.8362,1024.92,-999.00,-16.58,yes,no,yes,300234062836680,IMB,CRREL,unknown,North
2017-04-16T13:59:31Z,1492351171,2017,14,0,106.583,106.5,88.93456,17.8362,1024.92,-999.00,-17.98,yes,no,yes,300234062836680,IMB,CRREL,unknown,North
2017-04-16T15:00:00Z,1492354800,2017,15,0,106.625,106.5,88.93456,17.8362,1024.92,-999.00,-17.3,yes,no,yes,300234062836680,IMB,CRREL,unknown,North
2017-04-16T16:00:28Z,1492358429,2017,16,0,106.667,106.667,88.92568,17.49745,1025.12,-999.00,-17.66,yes,no,yes,300234062836680,IMB,CRREL,unknown,North
2017-04-16T16:59:31Z,1492361971,2017,17,0,106.708,106.667,88.92568,17.49745,1025.19,-999.00,-17.81,yes,no,yes,300234062836680,IMB,CRREL,unknown,North
2017-04-16T18:00:00Z,1492365600,2017,18,0,106.75,106.667,88.92568,17.49745,1025.32,-999.00,-16.8,yes,no,yes,300234062836680,IMB,CRREL,unknown,North
2017-04-16T19:00:28Z,1492369229,2017,19,0,106.792,106.667,88.92568,17.49745,1025.53,-999.00,-18.19,yes,no,yes,300234062836680,IMB,CRREL,unknown,North
2017-04-16T19:59:31Z,1492372771,2017,20,0,106.833,106.833,88.91867,17.28154,1025.94,-999.00,-19.57,yes,no,yes,300234062836680,IMB,CRREL,unknown,North
2017-04-16T21:00:00Z,1492376400,2017,21,0,106.875,106.833,88.91867,17.28154,1026.28,-999.00,-19.19,yes,no,yes,300234062836680,IMB,CRREL,unknown,North
2017-04-16T22:00:28Z,1492380029,2017,22,0,106.917,106.833,88.91867,17.28154,1026.68,-999.00,-20.14,yes,no,yes,300234062836680,IMB,CRREL,unknown,North
2017-04-16T22:59:31Z,1492383571,2017,23,0,106.958,106.833,88.91867,17.28154,1027.37,-999.00,-21.22,yes,no,yes,300234062836680,IMB,CRREL,unknown,North
2017-04-17T00:00:00Z,1492387200,2017,0,0,107.0,107.0,88.91297,17.12945,1027.91,-999.00,-22.61,yes,no,yes,300234062836680,IMB,CRREL,unknown,North
2017-04-17T01:00:28Z,1492390829,2017,1,0,107.042,107.0,88.91297,17.12945,1028.59,-999.00,-23.29,yes,no,yes,300234062836680,IMB,CRREL,unknown,North
2017-04-17T01:59:31Z,1492394371,2017,2,0,107.083,107.0,88.91297,17.12945,1029.41,-999.00,-23.1,yes,no,yes,300234062836680,IMB,CRREL,unknown,North
2017-04-17T03:00:00Z,1492398000,2017,3,0,107.125,107.0,88.91297,17.12945,1030.09,-999.00,-23.38,yes,no,yes,300234062836680,IMB,CRREL,unknown,North
2017-04-17T04:00:28Z,1492401629,2017,4,0,107.167,107.167,88.90965,17.02441,1030.63,-999.00,-22.71,yes,no,yes,300234062836680,IMB,CRREL,unknown,North
2017-04-17T04:59:31Z,1492405171,2017,5,0,107.208,107.167,88.90965,17.02441,1031.38,-999.00,-22.58,yes,no,yes,300234062836680,IMB,CRREL,unknown,North
2017-04-17T06:00:00Z,1492408800,2017,6,0,107.25,107.167,88.90965,17.02441,1032.13,-999.00,-22.64,yes,no,yes,300234062836680,IMB,CRREL,unknown,North